Location: Bas-Clignon
(44.2000°N, 6.6333°E)
Time: 01:21:02
(UTC+00:00)

Atlas Centaur 2 - Pass Details

Date: 03 February 2023
Orbit: 459 x 1295 km, 30.4° (Epoch: 27 March)

Event Time Altitude Azimuth Distance (km) Brightness Sun altitude
Rises 19:55:40 0° 246° (WSW) 4,197 6.5 -34.2°
Reaches altitude 10° 19:58:55 10° 237° (WSW) 3,277 5.7 -34.8°
Enters shadow 20:04:41 29° 196° (SSW) 2,167 4.2 -35.8°
